Year,Month,Day,Hour,Minute,Value (Times are PST for temperature in C)
2017,11,23,00,00,13.80
2017,11,23,00,01,13.80
2017,11,23,00,02,13.80
2017,11,23,00,03,13.70
2017,11,23,00,04,13.70
2017,11,23,00,05,13.70
2017,11,23,00,06,13.70
2017,11,23,00,07,13.70
2017,11,23,00,08,13.70
2017,11,23,00,09,13.70
2017,11,23,00,10,13.60
2017,11,23,00,11,13.60
2017,11,23,00,12,13.60
2017,11,23,00,13,13.60
2017,11,23,00,14,13.60
2017,11,23,00,15,13.50
2017,11,23,00,16,13.50
2017,11,23,00,17,13.50
2017,11,23,00,18,13.40
2017,11,23,00,19,13.40
2017,11,23,00,20,13.40
2017,11,23,00,21,13.30
2017,11,23,00,22,13.30
2017,11,23,00,23,13.30
2017,11,23,00,24,13.30
2017,11,23,00,25,13.20
2017,11,23,00,26,13.20
2017,11,23,00,27,13.20
2017,11,23,00,28,13.20
2017,11,23,00,29,13.20
2017,11,23,00,30,13.10
2017,11,23,00,31,13.10
2017,11,23,00,32,13.10
2017,11,23,00,33,13.10
2017,11,23,00,34,13.00
2017,11,23,00,35,13.00
2017,11,23,00,36,13.00
2017,11,23,00,37,12.90
2017,11,23,00,38,12.90
2017,11,23,00,39,12.90
2017,11,23,00,40,12.90
2017,11,23,00,41,12.80
2017,11,23,00,42,12.80
2017,11,23,00,43,12.80
2017,11,23,00,44,12.80
2017,11,23,00,45,12.80
2017,11,23,00,46,12.80
2017,11,23,00,47,12.70
2017,11,23,00,48,12.70
2017,11,23,00,49,12.80
2017,11,23,00,50,12.80
2017,11,23,00,51,12.80
2017,11,23,00,52,12.80
2017,11,23,00,53,12.80
2017,11,23,00,54,12.80
2017,11,23,00,55,12.80
2017,11,23,00,56,12.80
2017,11,23,00,57,12.80
2017,11,23,00,58,12.80
2017,11,23,00,59,12.80
2017,11,23,01,00,12.80
2017,11,23,01,01,12.80
2017,11,23,01,02,12.80
2017,11,23,01,03,12.80
2017,11,23,01,04,12.90
2017,11,23,01,05,12.90
2017,11,23,01,06,12.90
2017,11,23,01,07,13.00
2017,11,23,01,08,13.10
2017,11,23,01,09,13.10
2017,11,23,01,10,13.10
2017,11,23,01,11,13.20
2017,11,23,01,12,13.20
2017,11,23,01,13,13.20
2017,11,23,01,14,13.20
2017,11,23,01,15,13.20
2017,11,23,01,16,13.20
2017,11,23,01,17,13.20
2017,11,23,01,18,13.20
2017,11,23,01,19,13.20
2017,11,23,01,20,13.30
2017,11,23,01,21,13.30
2017,11,23,01,22,13.30
2017,11,23,01,23,13.20
2017,11,23,01,24,13.20
2017,11,23,01,25,13.20
2017,11,23,01,26,13.20
2017,11,23,01,27,13.10
2017,11,23,01,28,13.10
2017,11,23,01,29,13.10
2017,11,23,01,30,13.10
2017,11,23,01,31,13.00
2017,11,23,01,32,13.00
2017,11,23,01,33,12.90
2017,11,23,01,34,12.90
2017,11,23,01,35,12.90
2017,11,23,01,36,12.90
2017,11,23,01,37,12.80
2017,11,23,01,38,12.80
2017,11,23,01,39,12.70
2017,11,23,01,40,12.60
2017,11,23,01,41,12.50
2017,11,23,01,42,12.40
2017,11,23,01,43,12.40
2017,11,23,01,44,12.40
2017,11,23,01,45,12.40
2017,11,23,01,46,12.40
2017,11,23,01,47,12.40
2017,11,23,01,48,12.40
2017,11,23,01,49,12.40
2017,11,23,01,50,12.40
2017,11,23,01,51,12.40
2017,11,23,09,46,9.90
2017,11,23,09,47,9.90
2017,11,23,09,48,9.90
2017,11,23,09,49,10.00
2017,11,23,09,50,10.00
2017,11,23,09,51,10.00
2017,11,23,09,52,10.00
2017,11,23,09,53,10.00
2017,11,23,09,54,10.10
2017,11,23,09,55,10.10
2017,11,23,09,56,10.10
2017,11,23,09,57,10.10
2017,11,23,09,58,10.10
2017,11,23,09,59,10.10
2017,11,23,10,00,10.10
2017,11,23,10,01,10.20
2017,11,23,10,02,10.20
2017,11,23,10,03,10.20
2017,11,23,10,04,10.20
2017,11,23,10,05,10.20
2017,11,23,10,06,10.30
2017,11,23,10,07,10.30
2017,11,23,10,08,10.30
2017,11,23,10,09,10.30
2017,11,23,10,10,10.40
2017,11,23,10,11,10.40
2017,11,23,10,12,10.40
2017,11,23,10,13,10.40
2017,11,23,10,14,10.40
2017,11,23,10,15,10.40
2017,11,23,10,16,10.40
2017,11,23,10,17,10.40
2017,11,23,10,18,10.40
2017,11,23,10,19,10.50
2017,11,23,10,20,10.50
2017,11,23,10,21,10.50
2017,11,23,10,22,10.60
2017,11,23,10,23,10.60
2017,11,23,10,24,10.60
2017,11,23,10,25,10.60
2017,11,23,10,26,10.60
2017,11,23,10,27,10.60
2017,11,23,10,28,10.60
2017,11,23,10,29,10.60
2017,11,23,10,30,10.60
2017,11,23,10,31,10.60
2017,11,23,10,32,10.60
2017,11,23,10,33,10.60
2017,11,23,10,34,10.60
2017,11,23,10,35,10.60
2017,11,23,10,36,10.60
2017,11,23,10,37,10.60
2017,11,23,10,38,10.60
2017,11,23,10,39,10.60
2017,11,23,10,40,10.60
2017,11,23,10,41,10.70
2017,11,23,10,42,10.70
2017,11,23,10,43,10.70
2017,11,23,10,44,10.60
2017,11,23,10,45,10.60
2017,11,23,10,46,10.60
2017,11,23,10,47,10.60
2017,11,23,10,48,10.60
2017,11,23,10,49,10.60
2017,11,23,10,50,10.60
2017,11,23,10,51,10.60
2017,11,23,10,52,10.60
2017,11,23,10,53,10.60
2017,11,23,10,54,10.60
2017,11,23,10,55,10.70
2017,11,23,10,56,10.70
2017,11,23,10,57,10.70
2017,11,23,10,58,10.70
2017,11,23,10,59,10.70
2017,11,23,11,00,10.70
2017,11,23,11,01,10.70
2017,11,23,11,02,10.70
2017,11,23,11,03,10.70
2017,11,23,11,04,10.70
2017,11,23,11,05,10.70
2017,11,23,11,06,10.70
2017,11,23,11,07,10.70
2017,11,23,11,08,10.70
2017,11,23,11,09,10.70
2017,11,23,11,10,10.80
2017,11,23,11,11,10.80
2017,11,23,11,12,10.80
2017,11,23,11,13,10.80
2017,11,23,11,14,10.80
2017,11,23,11,15,10.80
2017,11,23,11,16,10.80
2017,11,23,11,17,10.80
2017,11,23,11,18,10.80
2017,11,23,11,19,10.80
2017,11,23,11,20,10.80
2017,11,23,11,21,10.80
2017,11,23,11,22,10.80
2017,11,23,11,23,10.80
2017,11,23,11,24,10.80
2017,11,23,11,25,10.80
2017,11,23,11,26,10.80
2017,11,23,11,27,10.80
2017,11,23,11,28,10.70
2017,11,23,11,29,10.70
2017,11,23,11,30,10.70
2017,11,23,11,31,10.70
2017,11,23,11,32,10.70
2017,11,23,11,33,10.70
2017,11,23,11,34,10.70
2017,11,23,11,35,10.80
2017,11,23,11,36,10.80
2017,11,23,11,37,10.80
2017,11,23,11,38,10.90
2017,11,23,11,39,10.90
2017,11,23,11,40,10.90
2017,11,23,11,41,11.00
2017,11,23,11,42,11.10
2017,11,23,11,43,11.20
2017,11,23,11,44,11.30
2017,11,23,11,45,11.40
2017,11,23,11,46,11.50
2017,11,23,11,47,11.60
2017,11,23,11,48,11.70
2017,11,23,11,49,11.80
2017,11,23,11,50,11.90
2017,11,23,11,51,12.00
2017,11,23,11,52,12.10
2017,11,23,11,53,12.20
2017,11,23,11,54,12.20
2017,11,23,11,55,12.30
2017,11,23,11,56,12.30
2017,11,23,11,57,12.30
2017,11,23,11,58,12.40
2017,11,23,11,59,12.40
2017,11,23,12,00,12.50
2017,11,23,12,01,12.60
2017,11,23,12,02,12.60
2017,11,23,12,03,12.70
2017,11,23,12,04,12.70
2017,11,23,12,05,12.80
2017,11,23,12,06,12.80
2017,11,23,12,07,12.80
2017,11,23,12,08,12.80
2017,11,23,12,09,12.90
2017,11,23,12,10,12.90
2017,11,23,12,11,12.90
2017,11,23,12,12,12.90
2017,11,23,12,13,12.90
2017,11,23,12,14,12.90
2017,11,23,12,15,13.00
2017,11,23,12,16,13.00
2017,11,23,12,17,13.10
2017,11,23,12,18,13.10
2017,11,23,12,19,13.10
2017,11,23,12,20,13.10
2017,11,23,12,21,13.10
2017,11,23,12,22,13.10
2017,11,23,12,23,13.10
2017,11,23,12,24,13.10
2017,11,23,12,25,13.10
2017,11,23,12,26,13.10
2017,11,23,12,27,13.10
2017,11,23,12,28,13.10
2017,11,23,12,29,13.10
2017,11,23,12,30,13.10
2017,11,23,12,31,13.00
2017,11,23,12,32,13.00
2017,11,23,12,33,13.00
2017,11,23,12,34,13.00
2017,11,23,12,35,13.00
2017,11,23,12,36,13.10
2017,11,23,12,37,13.10
2017,11,23,12,38,13.20
2017,11,23,12,39,13.20
2017,11,23,12,40,13.20
2017,11,23,12,41,13.20
2017,11,23,12,42,13.20
2017,11,23,12,43,13.20
2017,11,23,12,44,13.20
2017,11,23,12,45,13.20
2017,11,23,12,46,13.20
2017,11,23,12,47,13.20
2017,11,23,12,48,13.20
2017,11,23,12,49,13.20
2017,11,23,12,50,13.30
2017,11,23,12,51,13.30
2017,11,23,12,52,13.30
2017,11,23,12,53,13.30
2017,11,23,12,54,13.30
2017,11,23,12,55,13.30
2017,11,23,12,56,13.30
2017,11,23,12,57,13.30
2017,11,23,12,58,13.30
2017,11,23,12,59,13.30
2017,11,23,13,00,13.30
2017,11,23,13,01,13.30
2017,11,23,13,02,13.30
2017,11,23,13,03,13.30
2017,11,23,13,04,13.30
2017,11,23,13,05,13.30
2017,11,23,13,06,13.40
2017,11,23,13,07,13.40
2017,11,23,13,08,13.40
2017,11,23,13,09,13.40
2017,11,23,13,10,13.30
2017,11,23,13,11,13.30
2017,11,23,13,12,13.20
2017,11,23,13,13,13.20
2017,11,23,13,14,13.20
2017,11,23,13,15,13.10
2017,11,23,13,16,13.10
2017,11,23,13,17,13.10
2017,11,23,13,18,13.10
2017,11,23,13,19,13.00
2017,11,23,13,20,13.00
2017,11,23,13,21,12.90
2017,11,23,13,22,12.90
2017,11,23,13,23,12.80
2017,11,23,13,24,12.80
2017,11,23,13,25,12.80
2017,11,23,13,26,12.70
2017,11,23,13,27,12.70
2017,11,23,13,28,12.60
2017,11,23,13,29,12.50
2017,11,23,13,30,12.50
2017,11,23,13,31,12.40
2017,11,23,13,32,12.40
2017,11,23,13,33,12.40
2017,11,23,13,34,12.40
2017,11,23,13,35,12.40
2017,11,23,13,36,12.40
2017,11,23,13,37,12.40
2017,11,23,13,38,12.30
2017,11,23,13,39,12.30
2017,11,23,13,40,12.30
2017,11,23,13,41,12.20
2017,11,23,13,42,12.20
2017,11,23,13,43,12.20
2017,11,23,13,44,12.20
2017,11,23,13,45,12.20
2017,11,23,13,46,12.20
2017,11,23,13,47,12.20
2017,11,23,13,48,12.20
2017,11,23,13,49,12.10
2017,11,23,13,50,12.10
2017,11,23,13,51,12.10
2017,11,23,13,52,12.10
2017,11,23,13,53,12.10
2017,11,23,13,54,12.10
2017,11,23,13,55,12.10
2017,11,23,13,56,12.10
2017,11,23,13,57,12.10
2017,11,23,13,58,12.10
2017,11,23,13,59,12.00
2017,11,23,14,00,12.00
2017,11,23,14,01,12.00
2017,11,23,14,02,12.00
2017,11,23,14,03,12.00
2017,11,23,14,04,12.00
2017,11,23,14,05,12.00
2017,11,23,14,06,12.00
2017,11,23,14,07,12.10
2017,11,23,14,08,12.10
2017,11,23,14,09,12.10
2017,11,23,14,10,12.10
2017,11,23,14,11,12.10
2017,11,23,14,12,12.10
2017,11,23,14,13,12.10
2017,11,23,14,14,12.10
2017,11,23,14,15,12.10
2017,11,23,14,16,12.10
2017,11,23,14,17,12.10
2017,11,23,14,18,12.10
2017,11,23,14,19,12.10
2017,11,23,14,20,12.10
2017,11,23,14,21,12.10
2017,11,23,14,22,12.10
2017,11,23,14,23,12.10
2017,11,23,14,24,12.10
2017,11,23,14,25,12.10
2017,11,23,14,26,12.10
2017,11,23,14,27,12.00
2017,11,23,14,28,12.00
2017,11,23,14,29,11.90
2017,11,23,14,30,11.90
2017,11,23,14,31,11.90
2017,11,23,14,32,11.80
2017,11,23,14,33,11.80
2017,11,23,14,34,11.80
2017,11,23,14,35,11.70
2017,11,23,14,36,11.70
2017,11,23,14,37,11.70
2017,11,23,14,38,11.70
2017,11,23,14,39,11.70
2017,11,23,14,40,11.80
2017,11,23,14,41,11.80
2017,11,23,14,42,11.80
2017,11,23,14,43,11.80
2017,11,23,14,44,11.80
2017,11,23,14,45,11.90
2017,11,23,14,46,11.90
2017,11,23,14,47,11.90
2017,11,23,14,48,11.90
2017,11,23,14,49,11.90
2017,11,23,14,50,12.00
2017,11,23,14,51,12.00
2017,11,23,14,52,12.00
2017,11,23,14,53,12.00
2017,11,23,14,54,12.00
2017,11,23,14,55,12.00
2017,11,23,14,56,12.10
2017,11,23,14,57,12.10
2017,11,23,14,58,12.10
2017,11,23,14,59,12.10
2017,11,23,15,00,12.10
2017,11,23,15,01,12.10
2017,11,23,15,02,12.10
2017,11,23,15,03,12.10
2017,11,23,15,04,12.10
2017,11,23,15,05,12.10
2017,11,23,15,06,12.10
2017,11,23,15,07,12.00
2017,11,23,15,08,12.00
2017,11,23,15,09,12.00
2017,11,23,15,10,12.00
2017,11,23,15,11,11.90
2017,11,23,15,12,11.90
2017,11,23,15,13,11.90
2017,11,23,15,14,11.80
2017,11,23,15,15,11.80
2017,11,23,15,16,11.80
2017,11,23,15,17,11.80
2017,11,23,15,18,11.80
2017,11,23,15,19,11.80
2017,11,23,15,20,11.80
2017,11,23,15,21,11.80
2017,11,23,15,22,11.80
2017,11,23,15,23,11.80
2017,11,23,15,24,11.80
2017,11,23,15,25,11.80
2017,11,23,15,26,11.80
2017,11,23,15,27,11.80
2017,11,23,15,28,11.80
2017,11,23,15,29,11.80
2017,11,23,15,30,11.80
2017,11,23,15,31,11.80
2017,11,23,15,32,11.80
2017,11,23,15,33,11.80
2017,11,23,15,34,11.70
2017,11,23,15,35,11.70
2017,11,23,15,36,11.70
2017,11,23,15,37,11.70
2017,11,23,15,38,11.70
2017,11,23,15,39,11.70
2017,11,23,15,40,11.70
2017,11,23,15,41,11.60
2017,11,23,15,42,11.60
2017,11,23,15,43,11.60
2017,11,23,15,44,11.60
2017,11,23,15,45,11.50
2017,11,23,15,46,11.50
2017,11,23,15,47,11.50
2017,11,23,15,48,11.50
2017,11,23,15,49,11.40
2017,11,23,15,50,11.40
2017,11,23,15,51,11.40
2017,11,23,15,52,11.40
2017,11,23,15,53,11.40
2017,11,23,15,54,11.40
2017,11,23,15,55,11.30
2017,11,23,15,56,11.30
2017,11,23,15,57,11.20
2017,11,23,15,58,11.20
2017,11,23,15,59,11.20
2017,11,23,16,00,11.10
2017,11,23,16,01,11.10
2017,11,23,16,02,11.10
2017,11,23,16,03,11.10
2017,11,23,16,04,11.10
2017,11,23,16,05,11.10
2017,11,23,16,06,11.00
2017,11,23,16,07,11.00
2017,11,23,16,08,11.00
2017,11,23,16,09,10.90
2017,11,23,16,10,10.90
2017,11,23,16,11,10.90
2017,11,23,16,12,10.90
2017,11,23,16,13,10.80
2017,11,23,16,14,10.80
2017,11,23,16,15,10.70
2017,11,23,16,16,10.70
2017,11,23,16,17,10.60
2017,11,23,16,18,10.60
2017,11,23,16,19,10.50
2017,11,23,16,20,10.40
2017,11,23,16,21,10.40
2017,11,23,16,22,10.40
2017,11,23,16,23,10.30
2017,11,23,16,24,10.30
2017,11,23,16,25,10.30
2017,11,23,16,26,10.30
2017,11,23,16,27,10.30
2017,11,23,16,28,10.30
2017,11,23,16,29,10.30
2017,11,23,16,30,10.30
2017,11,23,16,31,10.30
2017,11,23,16,32,10.30
2017,11,23,16,33,10.30
2017,11,23,16,34,10.20
2017,11,23,16,35,10.20
2017,11,23,16,36,10.20
2017,11,23,16,37,10.20
2017,11,23,16,38,10.20
2017,11,23,16,39,10.10
2017,11,23,16,40,10.10
2017,11,23,16,41,10.00
2017,11,23,16,42,10.00
2017,11,23,16,43,10.00
2017,11,23,16,44,9.90
2017,11,23,16,45,9.90
2017,11,23,16,46,9.80
2017,11,23,16,47,9.80
2017,11,23,16,48,9.80
2017,11,23,16,49,9.70
2017,11,23,16,50,9.70
2017,11,23,16,51,9.70
2017,11,23,16,52,9.70
2017,11,23,16,53,9.60
2017,11,23,16,54,9.60
2017,11,23,16,55,9.60
2017,11,23,16,56,9.60
2017,11,23,16,57,9.60
2017,11,23,16,58,9.50
2017,11,23,16,59,9.50
2017,11,23,17,00,9.40
2017,11,23,17,01,9.40
2017,11,23,17,02,9.40
2017,11,23,17,03,9.40
2017,11,23,17,04,9.40
2017,11,23,17,05,9.30
2017,11,23,17,06,9.30
2017,11,23,17,07,9.30
2017,11,23,17,08,9.20
2017,11,23,17,09,9.20
2017,11,23,17,10,9.20
2017,11,23,17,11,9.20
2017,11,23,17,12,9.10
2017,11,23,17,13,9.10
2017,11,23,17,14,9.10
2017,11,23,17,15,9.10
2017,11,23,17,16,9.00
2017,11,23,17,17,9.00
2017,11,23,17,18,8.90
2017,11,23,17,19,8.90
2017,11,23,17,20,8.90
2017,11,23,17,21,8.80
2017,11,23,17,22,8.80
2017,11,23,17,23,8.80
2017,11,23,17,24,8.70
2017,11,23,17,25,8.70
2017,11,23,17,26,8.70
2017,11,23,17,27,8.70
2017,11,23,17,28,8.60
2017,11,23,17,29,8.60
2017,11,23,17,30,8.60
2017,11,23,17,31,8.60
2017,11,23,17,32,8.60
2017,11,23,17,33,8.50
2017,11,23,17,34,8.50
2017,11,23,17,35,8.50
2017,11,23,17,36,8.50
2017,11,23,17,37,8.40
2017,11,23,17,38,8.40
2017,11,23,17,39,8.40
2017,11,23,17,40,8.40
2017,11,23,17,41,8.40
2017,11,23,17,42,8.40
2017,11,23,17,43,8.40
2017,11,23,17,44,8.40
2017,11,23,17,45,8.40
2017,11,23,17,46,8.40
2017,11,23,17,47,8.40
2017,11,23,17,48,8.50
2017,11,23,17,49,8.50
2017,11,23,17,50,8.60
2017,11,23,17,51,8.60
2017,11,23,17,52,8.60
2017,11,23,17,53,8.70
2017,11,23,17,54,8.80
2017,11,23,17,55,8.80
2017,11,23,17,56,8.80
2017,11,23,17,57,8.90
2017,11,23,17,58,8.90
2017,11,23,17,59,9.00
2017,11,23,18,00,9.00
2017,11,23,18,01,9.10
2017,11,23,18,02,9.10
2017,11,23,18,03,9.10
2017,11,23,18,04,9.20
2017,11,23,18,05,9.20
2017,11,23,18,06,9.20
2017,11,23,18,07,9.20
2017,11,23,18,08,9.20
2017,11,23,18,09,9.30
2017,11,23,18,10,9.30
2017,11,23,18,11,9.30
2017,11,23,18,12,9.30
2017,11,23,18,13,9.30
2017,11,23,18,14,9.30
2017,11,23,18,15,9.20
2017,11,23,18,16,9.20
2017,11,23,18,17,9.20
2017,11,23,18,18,9.20
2017,11,23,18,19,9.20
2017,11,23,18,20,9.20
2017,11,23,18,21,9.20
2017,11,23,18,22,9.10
2017,11,23,18,23,9.10
2017,11,23,18,24,9.00
2017,11,23,18,25,9.00
2017,11,23,18,26,8.90
2017,11,23,18,27,8.90
2017,11,23,18,28,8.80
2017,11,23,18,29,8.80
2017,11,23,18,30,8.80
2017,11,23,18,31,8.70
2017,11,23,18,32,8.70
2017,11,23,18,33,8.70
2017,11,23,18,34,8.60
2017,11,23,18,35,8.60
2017,11,23,18,36,8.60
2017,11,23,18,37,8.60
2017,11,23,18,38,8.50
2017,11,23,18,39,8.50
2017,11,23,18,40,8.50
2017,11,23,18,41,8.40
2017,11,23,18,42,8.40
2017,11,23,18,43,8.40
2017,11,23,18,44,8.40
2017,11,23,18,45,8.30
2017,11,23,18,46,8.30
2017,11,23,18,47,8.30
2017,11,23,18,48,8.30
2017,11,23,18,49,8.30
2017,11,23,18,50,8.30
2017,11,23,18,51,8.30
2017,11,23,18,52,8.20
2017,11,23,18,53,8.20
2017,11,23,18,54,8.20
2017,11,23,18,55,8.20
2017,11,23,18,56,8.20
2017,11,23,18,57,8.20
2017,11,23,18,58,8.20
2017,11,23,18,59,8.20
2017,11,23,19,00,8.20
2017,11,23,19,01,8.20
2017,11,23,19,02,8.20
2017,11,23,19,03,8.20
2017,11,23,19,04,8.20
2017,11,23,19,05,8.20
2017,11,23,19,06,8.20
2017,11,23,19,07,8.20
2017,11,23,19,08,8.20
2017,11,23,19,09,8.20
2017,11,23,19,10,8.20
2017,11,23,19,11,8.20
2017,11,23,19,12,8.30
2017,11,23,19,13,8.30
2017,11,23,19,14,8.30
2017,11,23,19,15,8.30
2017,11,23,19,16,8.30
2017,11,23,19,17,8.40
2017,11,23,19,18,8.40
2017,11,23,19,19,8.40
2017,11,23,19,20,8.50
2017,11,23,19,21,8.50
2017,11,23,19,22,8.60
2017,11,23,19,23,8.60
2017,11,23,19,24,8.60
2017,11,23,19,25,8.60
2017,11,23,19,26,8.70
2017,11,23,19,27,8.70
2017,11,23,19,28,8.70
2017,11,23,19,29,8.70
2017,11,23,19,30,8.70
2017,11,23,19,31,8.70
2017,11,23,19,32,8.70
2017,11,23,19,33,8.70
2017,11,23,19,34,8.70
2017,11,23,19,35,8.70
2017,11,23,19,36,8.80
2017,11,23,19,37,8.80
2017,11,23,19,38,8.80
2017,11,23,19,39,8.80
2017,11,23,19,40,8.90
2017,11,23,19,41,8.90
2017,11,23,19,42,8.90
2017,11,23,19,43,8.90
2017,11,23,19,44,8.90
2017,11,23,19,45,8.90
2017,11,23,19,46,8.90
2017,11,23,19,47,8.90
2017,11,23,19,48,8.90
2017,11,23,19,49,8.80
2017,11,23,19,50,8.80
2017,11,23,19,51,8.80
2017,11,23,19,52,8.80
2017,11,23,19,53,8.70
2017,11,23,19,54,8.70
2017,11,23,19,55,8.70
2017,11,23,19,56,8.60
2017,11,23,19,57,8.60
2017,11,23,19,58,8.60
2017,11,23,19,59,8.60
2017,11,23,20,00,8.60
2017,11,23,20,01,8.50
2017,11,23,20,02,8.50
2017,11,23,20,03,8.50
2017,11,23,20,04,8.50
2017,11,23,20,05,8.40
2017,11,23,20,06,8.40
2017,11,23,20,07,8.40
2017,11,23,20,08,8.40
2017,11,23,20,09,8.30
2017,11,23,20,10,8.20
2017,11,23,20,11,8.20
2017,11,23,20,12,8.20
2017,11,23,20,13,8.20
2017,11,23,20,14,8.20
2017,11,23,20,15,8.20
2017,11,23,20,16,8.20
2017,11,23,20,17,8.20
2017,11,23,20,18,8.30
2017,11,23,20,19,8.30
2017,11,23,20,20,8.30
2017,11,23,20,21,8.20
2017,11,23,20,22,8.20
2017,11,23,20,23,8.20
2017,11,23,20,24,8.20
2017,11,23,20,25,8.10
2017,11,23,20,26,8.10
2017,11,23,20,27,8.20
2017,11,23,20,28,8.20
2017,11,23,20,29,8.10
2017,11,23,20,30,8.00
2017,11,23,20,31,7.90
2017,11,23,20,32,7.80
2017,11,23,20,33,7.70
2017,11,23,20,34,7.70
2017,11,23,20,35,7.70
2017,11,23,20,36,7.70
2017,11,23,20,37,7.70
2017,11,23,20,38,7.70
2017,11,23,20,39,7.70
2017,11,23,20,40,7.80
2017,11,23,20,41,7.80
2017,11,23,20,42,7.80
2017,11,23,20,43,7.70
2017,11,23,20,44,7.70
2017,11,23,20,45,7.70
2017,11,23,20,46,7.70
2017,11,23,20,47,7.60
2017,11,23,20,48,7.60
2017,11,23,20,49,7.60
2017,11,23,20,50,7.60
2017,11,23,20,51,7.60
2017,11,23,20,52,7.70
2017,11,23,20,53,7.70
2017,11,23,20,54,7.70
2017,11,23,20,55,7.60
2017,11,23,20,56,7.60
2017,11,23,20,57,7.60
2017,11,23,20,58,7.70
2017,11,23,20,59,7.70
2017,11,23,21,00,7.70
2017,11,23,21,01,7.70
2017,11,23,21,02,7.70
2017,11,23,21,03,7.70
2017,11,23,21,04,7.70
2017,11,23,21,05,7.80
2017,11,23,21,06,7.80
2017,11,23,21,07,7.80
2017,11,23,21,08,7.80
2017,11,23,21,09,8.00
2017,11,23,21,10,8.00
2017,11,23,21,11,8.10
2017,11,23,21,12,8.20
2017,11,23,21,13,8.20
2017,11,23,21,14,8.30
2017,11,23,21,15,8.30
2017,11,23,21,16,8.30
2017,11,23,21,17,8.40
2017,11,23,21,18,8.40
2017,11,23,21,19,8.50
2017,11,23,21,20,8.50
2017,11,23,21,21,8.60
2017,11,23,21,22,8.60
2017,11,23,21,23,8.60
2017,11,23,21,24,8.60
2017,11,23,21,25,8.60
2017,11,23,21,26,8.60
2017,11,23,21,27,8.60
2017,11,23,21,28,8.60
2017,11,23,21,29,8.60
2017,11,23,21,30,8.60
2017,11,23,21,31,8.60
2017,11,23,21,32,8.50
2017,11,23,21,33,8.50
2017,11,23,21,34,8.50
2017,11,23,21,35,8.50
2017,11,23,21,36,8.40
2017,11,23,21,37,8.40
2017,11,23,21,38,8.50
2017,11,23,21,39,8.40
2017,11,23,21,40,8.40
2017,11,23,21,41,8.40
2017,11,23,21,42,8.40
2017,11,23,21,43,8.40
2017,11,23,21,44,8.40
2017,11,23,21,45,8.40
2017,11,23,21,46,8.40
2017,11,23,21,47,8.40
2017,11,23,21,48,8.40
2017,11,23,21,49,8.50
2017,11,23,21,50,8.50
2017,11,23,21,51,8.50
2017,11,23,21,52,8.50
2017,11,23,21,53,8.50
2017,11,23,21,54,8.50
2017,11,23,21,55,8.50
2017,11,23,21,56,8.50
2017,11,23,21,57,8.50
2017,11,23,21,58,8.50
2017,11,23,21,59,8.50
2017,11,23,22,00,8.50
2017,11,23,22,01,8.40
2017,11,23,22,02,8.40
2017,11,23,22,03,8.40
2017,11,23,22,04,8.40
2017,11,23,22,05,8.50
2017,11,23,22,06,8.50
2017,11,23,22,07,8.50
2017,11,23,22,08,8.50
2017,11,23,22,09,8.50
2017,11,23,22,10,8.50
2017,11,23,22,11,8.50
2017,11,23,22,12,8.50
2017,11,23,22,13,8.50
2017,11,23,22,14,8.50
2017,11,23,22,15,8.60
2017,11,23,22,16,8.60
2017,11,23,22,17,8.60
2017,11,23,22,18,8.60
2017,11,23,22,19,8.60
2017,11,23,22,20,8.60
2017,11,23,22,21,8.60
2017,11,23,22,22,8.70
2017,11,23,22,23,8.70
2017,11,23,22,24,8.70
2017,11,23,22,25,8.70
2017,11,23,22,26,8.70
2017,11,23,22,27,8.70
2017,11,23,22,28,8.70
2017,11,23,22,29,8.80
2017,11,23,22,30,8.80
2017,11,23,22,31,8.80
2017,11,23,22,32,8.80
2017,11,23,22,33,8.80
2017,11,23,22,34,8.70
2017,11,23,22,35,8.70
2017,11,23,22,36,8.80
2017,11,23,22,37,8.80
2017,11,23,22,38,8.80
2017,11,23,22,39,8.80
2017,11,23,22,40,8.80
2017,11,23,22,41,8.90
2017,11,23,22,42,8.90
2017,11,23,22,43,9.00
2017,11,23,22,44,9.00
2017,11,23,22,45,9.10
2017,11,23,22,46,9.10
2017,11,23,22,47,9.10
2017,11,23,22,48,9.10
2017,11,23,22,49,9.10
2017,11,23,22,50,9.10
2017,11,23,22,51,9.10
2017,11,23,22,52,9.00
2017,11,23,22,53,9.00
2017,11,23,22,54,9.00
2017,11,23,22,55,9.00
2017,11,23,22,56,8.90
2017,11,23,22,57,8.90
2017,11,23,22,58,9.00
2017,11,23,22,59,9.00
2017,11,23,23,00,8.90
2017,11,23,23,01,8.90
2017,11,23,23,02,8.90
2017,11,23,23,03,8.90
2017,11,23,23,04,8.90
2017,11,23,23,05,8.80
2017,11,23,23,06,8.80
2017,11,23,23,07,8.80
2017,11,23,23,08,8.80
2017,11,23,23,09,8.80
2017,11,23,23,10,8.80
2017,11,23,23,11,8.90
2017,11,23,23,12,8.90
2017,11,23,23,13,8.90
2017,11,23,23,14,9.00
2017,11,23,23,15,9.00
2017,11,23,23,16,9.00
2017,11,23,23,17,9.00
2017,11,23,23,18,9.00
2017,11,23,23,19,9.00
2017,11,23,23,20,9.10
2017,11,23,23,21,9.10
2017,11,23,23,22,9.10
2017,11,23,23,23,9.10
2017,11,23,23,24,9.10
2017,11,23,23,25,9.20
2017,11,23,23,26,9.20
2017,11,23,23,27,9.20
2017,11,23,23,28,9.20
2017,11,23,23,29,9.20
2017,11,23,23,30,9.20
2017,11,23,23,31,9.20
2017,11,23,23,32,9.20
2017,11,23,23,33,9.20
2017,11,23,23,34,9.20
2017,11,23,23,35,9.20
2017,11,23,23,36,9.20
2017,11,23,23,37,9.10
2017,11,23,23,38,9.10
2017,11,23,23,39,9.10
2017,11,23,23,40,9.10
2017,11,23,23,41,9.10
2017,11,23,23,42,9.10
2017,11,23,23,43,9.10
2017,11,23,23,44,9.10
2017,11,23,23,45,9.10
2017,11,23,23,46,9.10
2017,11,23,23,47,9.10
2017,11,23,23,48,9.10
2017,11,23,23,49,9.10
2017,11,23,23,50,9.20
2017,11,23,23,51,9.20
2017,11,23,23,52,9.20
2017,11,23,23,53,9.20
2017,11,23,23,54,9.20
2017,11,23,23,55,9.20
2017,11,23,23,56,9.10
2017,11,23,23,57,9.10
2017,11,23,23,58,9.10
2017,11,23,23,59,9.10
